Starlink 11087

operational
NORAD ID: 59421 Int'l Des: 2024-065 Owner: SPXS Country: US Constellation: starlink
LEOCIRCULAR

Starlink 11087について

説明を読み込み中...

リアルタイム位置

3D地球を読み込み中...

次回通過

高度履歴

Altitude vs Time

uPlot chart will show altitude changes over time

軌道要素

1 59421U 24065A 25351.82620893 .00000900 00000-0 12279-4 0 9996
2 59421 53.1603 137.5798 0000888 81.8458 278.2661 15.69713980 98658
Epoch: Dec 17, 2025 • Age: 17 hours

現在のステータス

高度 360.7 km
速度 7.69 km/s
衛星直下点 -0.74°S, 143.31°W
打ち上げ日 Apr 7, 2024
運用期間 1.6 years
タイプ internet

技術仕様

分類 Payload
質量 960.00 kg
乾燥質量 910.00 kg
総質量 960.00 kg
長さ 0.30 m
直径 4.10 m
スパン 29.00 m
形状 Box + pan
製造者 SPXS
バスタイプ Starlink V2MD
フェーズステータス In Orbit
所有者/国 SPXS/US

大規模コンステレーション

Loading constellations...